Regional Weather Roundup
Issued by NWS

Home | Current Version | Previous Version | Text Only | Print | Product List | Glossary Off
Versions: 1 2 3 4 5 6 7 8 9 10 11 12 13 14 15 16 17 18 19 20 21 22 23 24 25 26 27 28 29 30 31 32 33 34 35 36 37 38 39 40 41 42 43 44 45 46 47 48 49 50

000
ASUS43 KLOT 301700
RWRIL

ILLINOIS REGIONAL WEATHER ROUNDUP
NATIONAL WEATHER SERVICE CHICAGO/ROMEOVILLE IL
1200 PM CDT TUE JUN 30 2015

NOTE: "FAIR" INDICATES FEW OR NO CLOUDS BELOW 12,000 FEET WITH NO
SIGNIFICANT WEATHER AND/OR OBSTRUCTIONS TO VISIBILITY.

* THESE STATIONS ARE NOT UNDER NWS QUALITY CONTROL. THEY ALSO MAY NOT
  REPORT WEATHER SUCH AS PRECIPITATION OR FOG.

ILZ001-002-007-009-015-016-024-301800-
NORTHWEST ILLINOIS

CITY           SKY/WX    TMP DP  RH WIND       PRES   REMARKS
MOLINE         SUNNY     78  61  55 N7        29.85S HX  80
STERLING*      SUNNY     77  64  65 N6        29.85S
$$

ILZ003-004-008-010-011-017-018-301800-
NORTH CENTRAL ILLINOIS

CITY           SKY/WX    TMP DP  RH WIND       PRES   REMARKS
ROCKFORD       PTSUNNY   72  61  68 NW13      29.86S
$$

ILZ005-006-012>014-019>023-301800-
NORTHEAST ILLINOIS

CITY           SKY/WX    TMP DP  RH WIND       PRES   REMARKS
CHICAGO-OHARE  MOSUNNY   72  61  68 NW12      29.82R
CHICAGO-MIDWAY MOSUNNY   76  61  59 W9        29.81S
AURORA         MOSUNNY   74  62  66 NW9       29.84S
LANSING*       MOSUNNY   75  59  56 NW7       29.82S
WAUKEGAN       PTSUNNY   70  60  70 VRB7      29.82R
DUPAGE AIRPORT MOSUNNY   73  62  68 NW12      29.83R
WHEELING       PTSUNNY   73  60  63 NW10G18   29.83R
NORTHERLY ISL    N/A     70  62  76 E7          N/A
$$

LMZ740>746-301800-
SOUTHERN LAKE MICHIGAN

STATION/POSITION SKY/WX   TEMP    WIND        PRES    VSBY  WAVE
                          AIR SEA DIR/SP/G                  HT/PER
                          (F)     (DEG/KT/KT) (MB)    (MI)  (FT/S)
HARRISON CRIB              65      80/  2/  3   N/A
BURNHAM HARBOR             69      60/  5/ 10   N/A
CALUMET HARBOR             74     290/  4/  7   N/A
BURNS HARBOR               67      CALM  /  1 1010.2F
MICHIGAN CITY              66     260/  7/  8   N/A
MICHIGAN CITY 6N           64 65  300/  4/  6   N/A           1
ST. JOSEPH                 62 65                N/A           1
$$

ILZ025>027-034>036-040-047-049-050-058-095>099-301800-
WEST-CENTRAL ILLINOIS

CITY           SKY/WX    TMP DP  RH WIND       PRES   REMARKS
QUINCY         SUNNY     78  66  66 W10       29.88S HX  80
MACOMB*        MOSUNNY   76  67  73 W5        29.87F
$$

ILZ028>032-037-038-041>044-048-051>054-059>061-301800-
CENTRAL ILLINOIS

CITY           SKY/WX    TMP DP  RH WIND       PRES   REMARKS
DECATUR        SUNNY     80  65  59 SW7       29.86F HX  82
PEORIA         SUNNY     80  62  54 NW3       29.85F HX  81
SPRINGFIELD    SUNNY     82  69  64 W7        29.86F HX  85
TAYLORVILLE    NOT AVBL
$$

ILZ033-039-045-046-055>057-062-063-301800-
EAST-CENTRAL ILLINOIS

CITY           SKY/WX    TMP DP  RH WIND       PRES   REMARKS
CHAMPAIGN      MOSUNNY   78  68  71 W10       29.86S HX  80
MATTOON        SUNNY     79  66  64 NW10      29.86S HX  81
$$

ILZ079-100>102-301800-
SOUTHWEST ILLINOIS

CITY           SKY/WX    TMP DP  RH WIND       PRES   REMARKS
ALTON          SUNNY     79  73  83 W7        29.90F HX  82
BELLEVILLE     MOSUNNY   81  69  67 W8        29.88F HX  84
CAHOKIA*       SUNNY     81  67  62 W6        29.90F HX  83
SPARTA*        SUNNY     81  67  63 W7        29.92S HX  83
$$

ILZ064>066-069>071-074>076-080>082-084>086-088>090-092>094-301800-
SOUTH-CENTRAL ILLINOIS

CITY           SKY/WX    TMP DP  RH WIND       PRES   REMARKS
CARBONDALE     SUNNY     81  65  58 W8        29.92S HX  83
MT. VERNON     SUNNY     81  66  61 W6        29.90F HX  83
SALEM*         SUNNY     81  67  63 W7        29.89F HX  84
$$

ILZ067-068-072-073-078-083-087-091-301800-
SOUTHEAST ILLINOIS

CITY           SKY/WX    TMP DP  RH WIND       PRES   REMARKS
LAWRENCEVILLE  SUNNY     82  67  60 SW12      29.87F HX  84
HARRISBURG*    SUNNY     81  69  67 NW7       29.92S HX  83
$$

ABBREVIATIONS USED IN REMARKS
   TC - TEMPERATURE IN CELSIUS
  WCI - WIND CHILL INDEX
   HX - HEAT INDEX
  VSB - VISIBILITY
$$




USA.gov is the U.S. government's official web portal to all federal, state and local government web resources and services.